Weather History for Meacham, OR

Change the Weather History Date:

Saturday, June 9, 2012

  Actual Average Record
Temperature  
Mean Temperature 4 °C -  
Max Temperature 9 °C 16 °C 46 °C (2002)
Min Temperature 2 °C 1 °C -3 °C (1999)
Degree Days  
Heating Degree Days 24    
Moisture  
Dew Point 2 °C    
Average Humidity 84    
Maximum Humidity 93    
Minimum Humidity 59    
Precipitation  
Precipitation 7.37 mm - - ()
Sea Level Pressure  
Sea Level Pressure 1017 hPa    
Wind  
Wind Speed 3 km/h (West)    
Max Wind Speed 11 km/h    
Max Gust Speed 37 km/h    
Visibility 13 kilometers    
Events Rain    
Averages and records for this station are not official NWS values.
T = Trace of Precipitation, MM = Missing Value Source: NWS Daily Summary

Daily Weather History Graph

Daily Weather History Graph

Search for Another Location

Airport:

Trip Planner

Search our weather history database for the weather conditions in past years. The results will help you decide how hot, cold, wet, or windy it might be!

Date:

Astronomy

Jun. 09, 2012 Rise Set
Actual Time 5:04 AM PDT 8:41 PM PDT
Civil Twilight 4:27 AM PDT 9:19 PM PDT
Nautical Twilight 3:37 AM PDT 10:09 PM PDT
Astronomical Twilight 2:30 AM PDT 11:16 PM PDT
Moon No Moon Rise 11:09 AM PDT (6/9)
Length of Visible Light 16h 51m
Length of Day
15h 36m
Waning Gibbous, 67% of the Moon is Illuminated
Jun 9
Waning Gibbous
Jun 11
Last Quarter
Jun 19
New
Jun 26
First Quarter
Jul 3
Full

Hourly Weather History & Observations

Time (PDT) Temp. Windchill Dew Point Humidity Pressure Visibility Wind Dir Wind Speed Gust Speed Precip Events Conditions
12:56 AM 2.8 °C - 1.1 °C 89% 1014.4 hPa 16.1 km Calm Calm - N/A   Overcast
1:56 AM 2.8 °C - 1.1 °C 89% 1014.2 hPa 16.1 km Calm Calm - N/A   Mostly Cloudy
2:56 AM 2.2 °C - 0.6 °C 89% 1014.3 hPa 16.1 km Calm Calm - N/A   Overcast
3:47 AM 2.0 °C -0.2 °C 1.0 °C 93% 1013.4 hPa 16.1 km Variable 7.4 km/h / 2.1 m/s - N/A   Overcast
3:56 AM 2.2 °C 0.7 °C 0.6 °C 89% 1014.5 hPa 16.1 km Variable 5.6 km/h / 1.5 m/s - N/A   Overcast
4:56 AM 2.2 °C - 0.6 °C 89% 1015.0 hPa 16.1 km Calm Calm - N/A   Overcast
5:56 AM 2.2 °C - 0.6 °C 89% 1015.5 hPa 14.5 km Calm Calm - N/A   Overcast
6:06 AM 2.0 °C - 1.0 °C 93% 1014.8 hPa 12.9 km Calm Calm - N/A   Overcast
6:56 AM 2.2 °C - 0.6 °C 89% 1016.5 hPa 16.1 km Calm Calm - N/A   Overcast
7:56 AM 2.8 °C 1.4 °C 1.1 °C 89% 1016.7 hPa 16.1 km Variable 5.6 km/h / 1.5 m/s - N/A   Overcast
8:56 AM 3.9 °C 2.6 °C 1.7 °C 86% 1016.8 hPa 16.1 km West 5.6 km/h / 1.5 m/s - N/A   Overcast
9:22 AM 4.0 °C 2.1 °C 1.0 °C 81% 1015.5 hPa 16.1 km Variable 7.4 km/h / 2.1 m/s - N/A   Overcast
9:56 AM 5.0 °C 3.9 °C 1.7 °C 79% 1016.9 hPa 16.1 km Variable 5.6 km/h / 1.5 m/s - N/A   Overcast
10:56 AM 5.6 °C 4.6 °C 2.2 °C 79% 1017.3 hPa 16.1 km Variable 5.6 km/h / 1.5 m/s - N/A   Overcast
11:19 AM 5.0 °C 3.9 °C 2.0 °C 81% 1016.1 hPa 16.1 km Variable 5.6 km/h / 1.5 m/s - N/A   Overcast
11:56 AM 7.2 °C 5.9 °C 2.2 °C 71% 1017.3 hPa 16.1 km Variable 7.4 km/h / 2.1 m/s 33.3 km/h / 9.3 m/s 0.0 mm Rain Light Rain
12:56 PM 7.2 °C 5.1 °C 1.7 °C 68% 1017.3 hPa 16.1 km Variable 11.1 km/h / 3.1 m/s - 0.0 mm Rain Light Rain
1:56 PM 8.3 °C - 0.6 °C 59% 1016.9 hPa 16.1 km Variable 11.1 km/h / 3.1 m/s 25.9 km/h / 7.2 m/s 0.0 mm   Overcast
2:56 PM 6.7 °C 5.8 °C 2.2 °C 73% 1017.8 hPa 9.7 km Variable 5.6 km/h / 1.5 m/s 37.0 km/h / 10.3 m/s 0.3 mm Rain Light Rain
3:27 PM 6.0 °C 4.5 °C 3.0 °C 81% 1016.8 hPa 2.8 km Variable 7.4 km/h / 2.1 m/s - 0.8 mm Rain Rain
3:36 PM 6.0 °C - 4.0 °C 87% 1016.8 hPa 4.8 km Calm Calm - 1.3 mm Rain Light Rain
3:56 PM 6.1 °C - 4.4 °C 89% 1017.9 hPa 8.0 km Calm Calm - 1.5 mm Rain Light Rain
4:21 PM 6.0 °C 4.0 °C 4.0 °C 87% 1016.8 hPa 3.2 km Variable 9.3 km/h / 2.6 m/s - 1.3 mm Rain Rain
4:56 PM 5.6 °C 4.6 °C 3.9 °C 89% 1018.6 hPa 3.2 km Variable 5.6 km/h / 1.5 m/s - 2.5 mm Rain Light Rain
5:08 PM 6.0 °C - 4.0 °C 87% 1017.2 hPa 2.4 km Calm Calm - 0.8 mm Rain Rain
5:27 PM 6.0 °C 3.7 °C 4.0 °C 87% 1017.2 hPa 4.0 km Variable 11.1 km/h / 3.1 m/s - 1.8 mm Rain Light Rain
5:39 PM 6.0 °C 3.7 °C 4.0 °C 87% 1017.2 hPa 4.8 km Variable 11.1 km/h / 3.1 m/s - 2.0 mm Rain Rain
5:47 PM 6.0 °C 5.0 °C 4.0 °C 87% 1017.2 hPa 3.2 km Variable 5.6 km/h / 1.5 m/s - 2.5 mm Rain Rain
5:56 PM 6.1 °C 4.6 °C 3.9 °C 86% 1018.5 hPa 8.0 km Variable 7.4 km/h / 2.1 m/s - 3.0 mm Rain Light Rain
6:20 PM 6.0 °C 5.0 °C 4.0 °C 87% 1017.5 hPa 16.1 km Variable 5.6 km/h / 1.5 m/s - 0.0 mm   Overcast
6:35 PM 6.0 °C 5.0 °C 4.0 °C 87% 1017.5 hPa 16.1 km Variable 5.6 km/h / 1.5 m/s - 0.0 mm Rain Light Rain
6:56 PM 6.1 °C 4.2 °C 3.9 °C 86% 1019.2 hPa 16.1 km Variable 9.3 km/h / 2.6 m/s - 0.0 mm Rain Light Rain
7:56 PM 6.1 °C 4.2 °C 3.3 °C 82% 1019.5 hPa 16.1 km Variable 9.3 km/h / 2.6 m/s - 0.0 mm Rain Light Rain
8:56 PM 5.6 °C 4.6 °C 2.8 °C 82% 1020.0 hPa 16.1 km West 5.6 km/h / 1.5 m/s - 0.0 mm   Overcast
9:56 PM 5.6 °C 3.6 °C 2.8 °C 82% 1020.6 hPa 16.1 km Variable 9.3 km/h / 2.6 m/s - N/A   Overcast
10:56 PM 5.6 °C 3.6 °C 2.2 °C 79% 1020.8 hPa 16.1 km Variable 9.3 km/h / 2.6 m/s - N/A   Overcast
11:56 PM 5.0 °C - 2.2 °C 82% 1020.8 hPa 16.1 km Calm Calm - N/A   Overcast